Wetterdaten: Dienstag, 28.07.2015
Datum Zeit Temp. A. Feuchte A. Luftdruck Regen Wind Richtung Richtung Sonnenschein ET UV Solar Taupunkt Windchill Windben Empfang
28.07.2015 00:04 17,1 C 63 % 1010,0 hPa 0,0 l/m 0,0 km/h (0 Bft) NO 39 0 min 0,000 mm 0,0 UV-I 0 W/m 10,0 C 17,1 C 0,0 km/h (0 Bft) 0,00 %
28.07.2015 00:09 17,3 C 63 % 1009,9 hPa 0,0 l/m 0,0 km/h (0 Bft) NW 309 0 min 0,000 mm 0,0 UV-I 0 W/m 10,2 C 17,3 C 0,0 km/h (0 Bft) 0,00 %
28.07.2015 00:14 17,5 C 61 % 1010,0 hPa 0,0 l/m 0,0 km/h (0 Bft) SO 124 0 min 0,000 mm 0,0 UV-I 0 W/m 9,9 C 17,5 C 0,0 km/h (0 Bft) 0,00 %
28.07.2015 00:19 17,6 C 60 % 1009,8 hPa 0,0 l/m 0,0 km/h (0 Bft) N-NO 20 0 min 0,000 mm 0,0 UV-I 0 W/m 9,7 C 17,6 C 0,0 km/h (0 Bft) 0,00 %
28.07.2015 00:24 17,7 C 59 % 1009,9 hPa 0,0 l/m 0,0 km/h (0 Bft) NW 309 0 min 0,000 mm 0,0 UV-I 0 W/m 9,6 C 17,7 C 0,0 km/h (0 Bft) 0,00 %
28.07.2015 00:29 17,8 C 58 % 1009,7 hPa 0,0 l/m 0,0 km/h (0 Bft) N-NW 345 0 min 0,000 mm 0,0 UV-I 0 W/m 9,4 C 17,8 C 0,0 km/h (0 Bft) 0,00 %
28.07.2015 00:34 17,8 C 56 % 1009,9 hPa 0,0 l/m 0,0 km/h (0 Bft) NO 40 0 min 0,000 mm 0,0 UV-I 0 W/m 8,9 C 17,8 C 0,0 km/h (0 Bft) 0,00 %
28.07.2015 00:39 17,8 C 57 % 1009,7 hPa 0,0 l/m 0,0 km/h (0 Bft) N-NO 15 0 min 0,000 mm 0,0 UV-I 0 W/m 9,2 C 17,8 C 0,0 km/h (0 Bft) 0,00 %
28.07.2015 00:44 17,8 C 58 % 1009,9 hPa 0,0 l/m 0,0 km/h (0 Bft) O 82 0 min 0,000 mm 0,0 UV-I 0 W/m 9,4 C 17,8 C 0,0 km/h (0 Bft) 0,00 %
28.07.2015 00:49 17,8 C 57 % 1009,5 hPa 0,0 l/m 0,0 km/h (0 Bft) N-NO 27 0 min 0,000 mm 0,0 UV-I 0 W/m 9,2 C 17,8 C 0,0 km/h (0 Bft) 0,00 %
28.07.2015 00:54 17,8 C 57 % 1009,7 hPa 0,0 l/m 0,0 km/h (0 Bft) N 352 0 min 0,000 mm 0,0 UV-I 0 W/m 9,2 C 17,8 C 0,0 km/h (0 Bft) 0,00 %
28.07.2015 00:59 17,8 C 56 % 1009,7 hPa 0,0 l/m 0,0 km/h (0 Bft) N 351 0 min 0,000 mm 0,0 UV-I 0 W/m 8,9 C 17,8 C 0,0 km/h (0 Bft) 0,00 %
28.07.2015 01:04 17,8 C 57 % 1009,7 hPa 0,0 l/m 0,0 km/h (0 Bft) NO 51 0 min 0,000 mm 0,0 UV-I 0 W/m 9,2 C 17,8 C 0,0 km/h (0 Bft) 0,00 %
28.07.2015 01:09 17,8 C 57 % 1009,8 hPa 0,0 l/m 0,0 km/h (0 Bft) NO 39 0 min 0,000 mm 0,0 UV-I 0 W/m 9,2 C 17,8 C 0,0 km/h (0 Bft) 0,00 %
28.07.2015 01:14 17,8 C 57 % 1009,7 hPa 0,0 l/m 0,0 km/h (0 Bft) N 354 0 min 0,000 mm 0,0 UV-I 0 W/m 9,2 C 17,8 C 0,0 km/h (0 Bft) 0,00 %
28.07.2015 01:19 17,7 C 56 % 1009,8 hPa 0,0 l/m 0,0 km/h (0 Bft) NO 48 0 min 0,000 mm 0,0 UV-I 0 W/m 8,8 C 17,7 C 0,0 km/h (0 Bft) 0,00 %
28.07.2015 01:24 17,7 C 56 % 1009,8 hPa 0,0 l/m 0,0 km/h (0 Bft) N 354 0 min 0,000 mm 0,0 UV-I 0 W/m 8,8 C 17,7 C 0,0 km/h (0 Bft) 0,00 %
28.07.2015 01:29 17,7 C 56 % 1009,7 hPa 0,0 l/m 0,0 km/h (0 Bft) N-NO 30 0 min 0,000 mm 0,0 UV-I 0 W/m 8,8 C 17,7 C 0,0 km/h (0 Bft) 0,00 %
28.07.2015 01:34 17,7 C 55 % 1009,7 hPa 0,0 l/m 0,0 km/h (0 Bft) N-NO 33 0 min 0,000 mm 0,0 UV-I 0 W/m 8,5 C 17,7 C 0,0 km/h (0 Bft) 0,00 %
28.07.2015 01:39 17,7 C 55 % 1009,7 hPa 0,0 l/m 0,0 km/h (0 Bft) N-NO 20 0 min 0,000 mm 0,0 UV-I 0 W/m 8,5 C 17,7 C 0,0 km/h (0 Bft) 0,00 %
28.07.2015 01:44 17,8 C 55 % 1009,7 hPa 0,0 l/m 0,0 km/h (0 Bft) NO 36 0 min 0,000 mm 0,0 UV-I 0 W/m 8,6 C 17,8 C 0,0 km/h (0 Bft) 0,00 %
28.07.2015 01:49 17,8 C 55 % 1009,8 hPa 0,0 l/m 0,0 km/h (0 Bft) NO 40 0 min 0,000 mm 0,0 UV-I 0 W/m 8,6 C 17,8 C 0,0 km/h (0 Bft) 0,00 %
28.07.2015 01:54 17,7 C 56 % 1009,6 hPa 0,0 l/m 0,0 km/h (0 Bft) N-NO 27 0 min 0,000 mm 0,0 UV-I 0 W/m 8,8 C 17,7 C 0,0 km/h (0 Bft) 0,00 %
28.07.2015 01:59 17,6 C 57 % 1009,7 hPa 0,0 l/m 0,0 km/h (0 Bft) N-NO 32 0 min 0,000 mm 0,0 UV-I 0 W/m 9,0 C 17,6 C 0,0 km/h (0 Bft) 0,00 %
28.07.2015 02:04 17,4 C 57 % 1009,8 hPa 0,0 l/m 0,4 km/h (0 Bft) N-NO 29 0 min 0,000 mm 0,0 UV-I 0 W/m 8,8 C 17,4 C 4,0 km/h (1 Bft) 0,00 %
28.07.2015 02:09 17,3 C 59 % 1009,6 hPa 0,0 l/m 0,0 km/h (0 Bft) NO 39 0 min 0,000 mm 0,0 UV-I 0 W/m 9,2 C 17,3 C 0,0 km/h (0 Bft) 0,00 %
28.07.2015 02:14 17,2 C 59 % 1009,8 hPa 0,0 l/m 0,0 km/h (0 Bft) NO 42 0 min 0,000 mm 0,0 UV-I 0 W/m 9,1 C 17,2 C 0,0 km/h (0 Bft) 0,00 %
28.07.2015 02:19 17,2 C 61 % 1009,6 hPa 0,0 l/m 0,0 km/h (0 Bft) NO 40 0 min 0,000 mm 0,0 UV-I 0 W/m 9,6 C 17,2 C 0,0 km/h (0 Bft) 0,00 %
28.07.2015 02:24 17,1 C 60 % 1009,6 hPa 0,0 l/m 0,0 km/h (0 Bft) NO 47 0 min 0,000 mm 0,0 UV-I 0 W/m 9,3 C 17,1 C 0,0 km/h (0 Bft) 0,00 %
28.07.2015 02:29 17,0 C 60 % 1009,7 hPa 0,0 l/m 0,0 km/h (0 Bft) NO 47 0 min 0,000 mm 0,0 UV-I 0 W/m 9,2 C 17,0 C 0,0 km/h (0 Bft) 0,00 %
28.07.2015 02:34 16,9 C 59 % 1009,6 hPa 0,0 l/m 0,0 km/h (0 Bft) NO 43 0 min 0,000 mm 0,0 UV-I 0 W/m 8,8 C 16,9 C 0,0 km/h (0 Bft) 0,00 %
28.07.2015 02:39 16,8 C 60 % 1009,6 hPa 0,0 l/m 0,0 km/h (0 Bft) NO 44 0 min 0,000 mm 0,0 UV-I 0 W/m 9,0 C 16,8 C 0,0 km/h (0 Bft) 0,00 %
28.07.2015 02:44 16,8 C 62 % 1009,6 hPa 0,0 l/m 0,0 km/h (0 Bft) NO 45 0 min 0,000 mm 0,0 UV-I 0 W/m 9,5 C 16,8 C 0,0 km/h (0 Bft) 0,00 %
28.07.2015 02:49 16,7 C 63 % 1009,8 hPa 0,0 l/m 0,0 km/h (0 Bft) NO 38 0 min 0,000 mm 0,0 UV-I 0 W/m 9,6 C 16,7 C 0,0 km/h (0 Bft) 0,00 %
28.07.2015 02:54 16,5 C 61 % 1009,5 hPa 0,0 l/m 0,0 km/h (0 Bft) NO 44 0 min 0,000 mm 0,0 UV-I 0 W/m 9,0 C 16,5 C 0,0 km/h (0 Bft) 0,00 %
28.07.2015 02:59 16,4 C 64 % 1009,6 hPa 0,0 l/m 0,0 km/h (0 Bft) NO 40 0 min 0,000 mm 0,0 UV-I 0 W/m 9,6 C 16,4 C 0,0 km/h (0 Bft) 0,00 %
28.07.2015 03:04 16,3 C 63 % 1009,5 hPa 0,0 l/m 0,0 km/h (0 Bft) NO 48 0 min 0,000 mm 0,0 UV-I 0 W/m 9,2 C 16,3 C 0,0 km/h (0 Bft) 0,00 %
28.07.2015 03:09 16,2 C 66 % 1009,5 hPa 0,0 l/m 0,0 km/h (0 Bft) NO 48 0 min 0,000 mm 0,0 UV-I 0 W/m 9,8 C 16,2 C 0,0 km/h (0 Bft) 0,00 %
28.07.2015 03:14 16,1 C 66 % 1009,5 hPa 0,0 l/m 0,0 km/h (0 Bft) NO 51 0 min 0,000 mm 0,0 UV-I 0 W/m 9,7 C 16,1 C 0,0 km/h (0 Bft) 0,00 %
28.07.2015 03:19 15,9 C 66 % 1009,4 hPa 0,0 l/m 0,0 km/h (0 Bft) NO 41 0 min 0,000 mm 0,0 UV-I 0 W/m 9,6 C 15,9 C 0,0 km/h (0 Bft) 0,00 %
28.07.2015 03:24 15,9 C 67 % 1009,5 hPa 0,0 l/m 0,0 km/h (0 Bft) NO 52 0 min 0,000 mm 0,0 UV-I 0 W/m 9,8 C 15,9 C 0,0 km/h (0 Bft) 0,00 %
28.07.2015 03:29 15,8 C 67 % 1009,3 hPa 0,0 l/m 0,0 km/h (0 Bft) NO 48 0 min 0,000 mm 0,0 UV-I 0 W/m 9,7 C 15,8 C 0,0 km/h (0 Bft) 0,00 %
28.07.2015 03:34 15,7 C 67 % 1009,5 hPa 0,0 l/m 0,0 km/h (0 Bft) NO 45 0 min 0,000 mm 0,0 UV-I 0 W/m 9,6 C 15,7 C 0,0 km/h (0 Bft) 0,00 %
28.07.2015 03:39 15,7 C 69 % 1009,3 hPa 0,0 l/m 0,0 km/h (0 Bft) NO 39 0 min 0,000 mm 0,0 UV-I 0 W/m 10,0 C 15,7 C 0,0 km/h (0 Bft) 0,00 %
28.07.2015 03:44 15,7 C 70 % 1009,3 hPa 0,0 l/m 0,0 km/h (0 Bft) N-NO 30 0 min 0,000 mm 0,0 UV-I 0 W/m 10,2 C 15,7 C 0,0 km/h (0 Bft) 0,00 %
28.07.2015 03:49 15,7 C 69 % 1009,4 hPa 0,0 l/m 0,0 km/h (0 Bft) NO 37 0 min 0,000 mm 0,0 UV-I 0 W/m 10,0 C 15,7 C 0,0 km/h (0 Bft) 0,00 %
28.07.2015 03:54 15,7 C 69 % 1009,2 hPa 0,0 l/m 0,0 km/h (0 Bft) NO 38 0 min 0,000 mm 0,0 UV-I 0 W/m 10,0 C 15,7 C 0,0 km/h (0 Bft) 0,00 %
28.07.2015 03:59 15,7 C 69 % 1009,3 hPa 0,0 l/m 0,0 km/h (0 Bft) NO 40 0 min 0,000 mm 0,0 UV-I 0 W/m 10,0 C 15,7 C 0,0 km/h (0 Bft) 0,00 %
28.07.2015 04:04 15,8 C 69 % 1009,1 hPa 0,0 l/m 0,0 km/h (0 Bft) NO 36 0 min 0,000 mm 0,0 UV-I 0 W/m 10,1 C 15,8 C 0,0 km/h (0 Bft) 0,00 %
28.07.2015 04:09 15,8 C 69 % 1009,0 hPa 0,0 l/m 0,0 km/h (0 Bft) NO 40 0 min 0,000 mm 0,0 UV-I 0 W/m 10,1 C 15,8 C 0,0 km/h (0 Bft) 0,00 %
28.07.2015 04:14 15,8 C 69 % 1009,2 hPa 0,0 l/m 0,0 km/h (0 Bft) NO 50 0 min 0,000 mm 0,0 UV-I 0 W/m 10,1 C 15,8 C 0,0 km/h (0 Bft) 0,00 %
28.07.2015 04:20 15,8 C 70 % 1009,2 hPa 0,0 l/m 0,0 km/h (0 Bft) N-NO 13 0 min 0,000 mm 0,0 UV-I 0 W/m 10,3 C 15,8 C 0,0 km/h (0 Bft) 0,00 %
28.07.2015 04:25 15,7 C 71 % 1009,2 hPa 0,0 l/m 0,0 km/h (0 Bft) NO 42 0 min 0,000 mm 0,0 UV-I 0 W/m 10,5 C 15,7 C 0,0 km/h (0 Bft) 0,00 %
28.07.2015 04:30 15,7 C 71 % 1009,2 hPa 0,0 l/m 0,0 km/h (0 Bft) NO 39 0 min 0,000 mm 0,0 UV-I 0 W/m 10,5 C 15,7 C 0,0 km/h (0 Bft) 0,00 %
28.07.2015 04:35 15,6 C 71 % 1009,2 hPa 0,0 l/m 0,0 km/h (0 Bft) NO 40 0 min 0,000 mm 0,0 UV-I 0 W/m 10,4 C 15,6 C 0,0 km/h (0 Bft) 0,00 %
28.07.2015 04:40 15,6 C 71 % 1009,1 hPa 0,0 l/m 0,0 km/h (0 Bft) NO 46 0 min 0,000 mm 0,0 UV-I 0 W/m 10,4 C 15,6 C 0,0 km/h (0 Bft) 0,00 %
28.07.2015 04:45 15,6 C 71 % 1009,1 hPa 0,0 l/m 0,0 km/h (0 Bft) NO 37 0 min 0,000 mm 0,0 UV-I 0 W/m 10,4 C 15,6 C 0,0 km/h (0 Bft) 0,00 %
28.07.2015 04:50 15,6 C 73 % 1009,1 hPa 0,0 l/m 0,0 km/h (0 Bft) N-NO 32 0 min 0,000 mm 0,0 UV-I 0 W/m 10,8 C 15,6 C 0,0 km/h (0 Bft) 0,00 %
28.07.2015 04:55 15,6 C 74 % 1008,9 hPa 0,0 l/m 0,0 km/h (0 Bft) NO 47 0 min 0,000 mm 0,0 UV-I 0 W/m 11,0 C 15,6 C 0,0 km/h (0 Bft) 0,00 %
28.07.2015 05:00 15,5 C 74 % 1008,9 hPa 0,0 l/m 0,0 km/h (0 Bft) NO 46 0 min 0,000 mm 0,0 UV-I 0 W/m 10,9 C 15,5 C 0,0 km/h (0 Bft) 0,00 %
28.07.2015 05:05 15,4 C 75 % 1009,0 hPa 0,0 l/m 0,0 km/h (0 Bft) NO 46 0 min 0,000 mm 0,0 UV-I 0 W/m 11,0 C 15,4 C 0,0 km/h (0 Bft) 0,00 %
28.07.2015 05:10 15,3 C 76 % 1009,0 hPa 0,0 l/m 0,0 km/h (0 Bft) NO 39 0 min 0,000 mm 0,0 UV-I 0 W/m 11,1 C 15,3 C 0,0 km/h (0 Bft) 0,00 %
28.07.2015 05:15 15,1 C 77 % 1008,9 hPa 0,0 l/m 0,0 km/h (0 Bft) NO 50 0 min 0,000 mm 0,0 UV-I 0 W/m 11,1 C 15,1 C 0,0 km/h (0 Bft) 0,00 %
28.07.2015 05:20 14,9 C 78 % 1009,0 hPa 0,0 l/m 0,0 km/h (0 Bft) O-NO 60 0 min 0,000 mm 0,0 UV-I 0 W/m 11,1 C 14,9 C 0,0 km/h (0 Bft) 0,00 %
28.07.2015 05:25 14,7 C 79 % 1009,0 hPa 0,0 l/m 0,0 km/h (0 Bft) NO 50 0 min 0,000 mm 0,0 UV-I 0 W/m 11,1 C 14,7 C 0,0 km/h (0 Bft) 0,00 %
28.07.2015 05:30 14,6 C 79 % 1009,0 hPa 0,0 l/m 0,0 km/h (0 Bft) NO 50 0 min 0,000 mm 0,0 UV-I 0 W/m 11,0 C 14,6 C 0,0 km/h (0 Bft) 0,00 %
28.07.2015 05:35 14,6 C 80 % 1009,0 hPa 0,0 l/m 0,0 km/h (0 Bft) NO 36 0 min 0,000 mm 0,0 UV-I 0 W/m 11,2 C 14,6 C 0,0 km/h (0 Bft) 0,00 %
28.07.2015 05:40 14,6 C 81 % 1009,1 hPa 0,0 l/m 0,0 km/h (0 Bft) N 354 0 min 0,000 mm 0,0 UV-I 0 W/m 11,4 C 14,6 C 0,0 km/h (0 Bft) 0,00 %
28.07.2015 05:45 14,6 C 81 % 1009,1 hPa 0,0 l/m 0,0 km/h (0 Bft) O-NO 63 0 min 0,000 mm 0,0 UV-I 0 W/m 11,4 C 14,6 C 0,0 km/h (0 Bft) 0,00 %
28.07.2015 05:50 14,7 C 81 % 1009,2 hPa 0,0 l/m 0,0 km/h (0 Bft) NO 37 0 min 0,000 mm 0,0 UV-I 0 W/m 11,5 C 14,7 C 0,0 km/h (0 Bft) 0,00 %
28.07.2015 05:55 14,6 C 81 % 1009,2 hPa 0,0 l/m 0,0 km/h (0 Bft) NO 42 0 min 0,000 mm 0,0 UV-I 0 W/m 11,4 C 14,6 C 0,0 km/h (0 Bft) 0,00 %
28.07.2015 06:00 14,7 C 80 % 1009,1 hPa 0,0 l/m 0,0 km/h (0 Bft) N-NO 17 0 min 0,000 mm 0,0 UV-I 0 W/m 11,3 C 14,7 C 0,0 km/h (0 Bft) 0,00 %
28.07.2015 06:05 14,8 C 78 % 1009,2 hPa 0,0 l/m 0,0 km/h (0 Bft) N-NO 30 0 min 0,000 mm 0,0 UV-I 20 W/m 11,0 C 14,8 C 0,0 km/h (0 Bft) 0,00 %
28.07.2015 06:10 15,0 C 78 % 1009,2 hPa 0,0 l/m 0,0 km/h (0 Bft) NO 34 0 min 0,000 mm 0,0 UV-I 20 W/m 11,2 C 15,0 C 0,0 km/h (0 Bft) 0,00 %
28.07.2015 06:15 15,1 C 77 % 1009,1 hPa 0,0 l/m 0,0 km/h (0 Bft) N-NO 26 0 min 0,000 mm 0,0 UV-I 20 W/m 11,1 C 15,1 C 0,0 km/h (0 Bft) 0,00 %
28.07.2015 06:20 15,2 C 76 % 1009,2 hPa 0,0 l/m 0,0 km/h (0 Bft) N-NO 32 0 min 0,000 mm 0,0 UV-I 30 W/m 11,0 C 15,2 C 0,0 km/h (0 Bft) 0,00 %
28.07.2015 06:25 15,4 C 75 % 1009,1 hPa 0,0 l/m 0,0 km/h (0 Bft) NO 41 0 min 0,000 mm 0,0 UV-I 30 W/m 11,0 C 15,4 C 0,0 km/h (0 Bft) 0,00 %
28.07.2015 06:30 15,6 C 75 % 1009,2 hPa 0,0 l/m 0,0 km/h (0 Bft) NO 36 0 min 0,000 mm 0,0 UV-I 30 W/m 11,2 C 15,6 C 0,0 km/h (0 Bft) 0,00 %
28.07.2015 06:35 15,8 C 74 % 1009,3 hPa 0,0 l/m 0,0 km/h (0 Bft) NO 46 0 min 0,000 mm 0,0 UV-I 30 W/m 11,2 C 15,8 C 0,0 km/h (0 Bft) 0,00 %
28.07.2015 06:40 15,9 C 74 % 1009,3 hPa 0,0 l/m 0,0 km/h (0 Bft) NO 35 0 min 0,000 mm 0,0 UV-I 30 W/m 11,3 C 15,9 C 0,0 km/h (0 Bft) 0,00 %
28.07.2015 06:45 16,0 C 73 % 1009,3 hPa 0,0 l/m 0,0 km/h (0 Bft) O-NO 57 0 min 0,000 mm 0,0 UV-I 30 W/m 11,2 C 16,0 C 0,0 km/h (0 Bft) 0,00 %
28.07.2015 06:50 16,0 C 73 % 1009,3 hPa 0,0 l/m 0,0 km/h (0 Bft) NO 40 0 min 0,000 mm 0,0 UV-I 40 W/m 11,2 C 16,0 C 0,0 km/h (0 Bft) 0,00 %
28.07.2015 06:55 16,1 C 73 % 1009,5 hPa 0,0 l/m 0,0 km/h (0 Bft) NO 44 0 min 0,000 mm 0,0 UV-I 40 W/m 11,3 C 16,1 C 0,0 km/h (0 Bft) 0,00 %
28.07.2015 07:00 16,2 C 73 % 1009,5 hPa 0,0 l/m 0,0 km/h (0 Bft) N-NO 33 0 min 0,000 mm 0,0 UV-I 40 W/m 11,4 C 16,2 C 0,0 km/h (0 Bft) 0,00 %
28.07.2015 07:05 16,3 C 73 % 1009,6 hPa 0,0 l/m 0,0 km/h (0 Bft) N-NO 29 0 min 0,000 mm 0,0 UV-I 40 W/m 11,4 C 16,3 C 0,0 km/h (0 Bft) 0,00 %
28.07.2015 07:10 16,4 C 73 % 1009,5 hPa 0,0 l/m 0,0 km/h (0 Bft) NO 43 0 min 0,000 mm 0,0 UV-I 40 W/m 11,5 C 16,4 C 0,0 km/h (0 Bft) 0,00 %
28.07.2015 07:15 16,5 C 74 % 1009,7 hPa 0,0 l/m 0,0 km/h (0 Bft) N-NO 20 0 min 0,000 mm 0,0 UV-I 40 W/m 11,8 C 16,5 C 0,0 km/h (0 Bft) 0,00 %
28.07.2015 07:20 16,6 C 74 % 1009,7 hPa 0,0 l/m 0,0 km/h (0 Bft) NO 44 0 min 0,000 mm 0,0 UV-I 40 W/m 11,9 C 16,6 C 0,0 km/h (0 Bft) 0,00 %
28.07.2015 07:25 16,7 C 74 % 1009,8 hPa 0,0 l/m 0,0 km/h (0 Bft) NO 41 0 min 0,000 mm 0,0 UV-I 40 W/m 12,0 C 16,7 C 0,0 km/h (0 Bft) 0,00 %
28.07.2015 07:30 16,7 C 73 % 1009,7 hPa 0,0 l/m 0,0 km/h (0 Bft) NO 43 0 min 0,000 mm 0,0 UV-I 40 W/m 11,8 C 16,7 C 0,0 km/h (0 Bft) 0,00 %
28.07.2015 07:35 16,7 C 73 % 1009,6 hPa 0,0 l/m 0,0 km/h (0 Bft) NO 41 0 min 0,000 mm 0,0 UV-I 35 W/m 11,8 C 16,7 C 0,0 km/h (0 Bft) 0,00 %
28.07.2015 07:40 16,7 C 73 % 1009,6 hPa 0,0 l/m 0,0 km/h (0 Bft) N 357 0 min 0,000 mm 0,0 UV-I 35 W/m 11,8 C 16,7 C 0,0 km/h (0 Bft) 0,00 %
28.07.2015 07:45 16,8 C 74 % 1009,7 hPa 0,0 l/m 0,0 km/h (0 Bft) N-NO 30 0 min 0,000 mm 1,0 UV-I 35 W/m 12,1 C 16,8 C 0,0 km/h (0 Bft) 0,00 %
28.07.2015 07:50 16,9 C 73 % 1009,7 hPa 0,0 l/m 0,0 km/h (0 Bft) NO 43 0 min 0,000 mm 1,0 UV-I 50 W/m 12,0 C 16,9 C 0,0 km/h (0 Bft) 0,00 %
28.07.2015 07:55 17,1 C 72 % 1009,8 hPa 0,0 l/m 0,0 km/h (0 Bft) N-NO 29 0 min 0,000 mm 1,0 UV-I 50 W/m 12,0 C 17,1 C 0,0 km/h (0 Bft) 0,00 %
28.07.2015 08:00 17,3 C 72 % 1009,7 hPa 0,0 l/m 0,0 km/h (0 Bft) NO 44 0 min 0,000 mm 1,0 UV-I 50 W/m 12,2 C 17,3 C 0,0 km/h (0 Bft) 0,00 %
28.07.2015 08:05 17,5 C 70 % 1009,7 hPa 0,0 l/m 0,0 km/h (0 Bft) NO 41 0 min 0,000 mm 1,0 UV-I 50 W/m 12,0 C 17,5 C 0,0 km/h (0 Bft) 0,00 %
28.07.2015 08:10 17,7 C 69 % 1009,7 hPa 0,0 l/m 0,0 km/h (0 Bft) N-NO 33 0 min 0,000 mm 1,0 UV-I 50 W/m 11,9 C 17,7 C 0,0 km/h (0 Bft) 0,00 %
28.07.2015 08:15 17,8 C 68 % 1009,8 hPa 0,0 l/m 0,0 km/h (0 Bft) N-NO 21 0 min 0,000 mm 1,0 UV-I 50 W/m 11,8 C 17,8 C 0,0 km/h (0 Bft) 0,00 %
28.07.2015 08:20 17,9 C 68 % 1009,7 hPa 0,0 l/m 0,0 km/h (0 Bft) N-NO 30 0 min 0,000 mm 1,0 UV-I 50 W/m 11,9 C 17,9 C 0,0 km/h (0 Bft) 0,00 %
28.07.2015 08:25 18,1 C 66 % 1009,8 hPa 0,0 l/m 0,0 km/h (0 Bft) SO 144 0 min 0,000 mm 1,0 UV-I 50 W/m 11,6 C 18,1 C 0,0 km/h (0 Bft) 0,00 %
28.07.2015 08:30 18,2 C 64 % 1009,8 hPa 0,0 l/m 0,0 km/h (0 Bft) O-NO 68 0 min 0,000 mm 1,0 UV-I 50 W/m 11,3 C 18,2 C 0,0 km/h (0 Bft) 0,00 %
28.07.2015 08:35 18,4 C 63 % 1009,9 hPa 0,0 l/m 0,4 km/h (0 Bft) N-NW 342 0 min 0,000 mm 1,0 UV-I 50 W/m 11,2 C 18,4 C 4,0 km/h (1 Bft) 0,00 %
28.07.2015 08:40 18,6 C 62 % 1009,8 hPa 0,0 l/m 0,0 km/h (0 Bft) NO 36 0 min 0,000 mm 1,0 UV-I 50 W/m 11,2 C 18,6 C 0,0 km/h (0 Bft) 0,00 %
28.07.2015 08:45 18,9 C 61 % 1010,0 hPa 0,0 l/m 0,0 km/h (0 Bft) NO 38 0 min 0,000 mm 1,0 UV-I 100 W/m 11,2 C 18,9 C 0,0 km/h (0 Bft) 0,00 %
28.07.2015 08:50 19,0 C 61 % 1009,9 hPa 0,0 l/m 0,0 km/h (0 Bft) N 355 0 min 0,000 mm 1,0 UV-I 100 W/m 11,3 C 19,0 C 0,0 km/h (0 Bft) 0,00 %
28.07.2015 08:55 19,1 C 60 % 1010,0 hPa 0,0 l/m 0,0 km/h (0 Bft) N 354 0 min 0,000 mm 1,0 UV-I 110 W/m 11,1 C 19,1 C 0,0 km/h (0 Bft) 0,00 %
28.07.2015 09:00 19,1 C 59 % 1010,0 hPa 0,0 l/m 3,2 km/h (1 Bft) W-NW 297 0 min 0,000 mm 1,0 UV-I 110 W/m 10,9 C 19,1 C 7,9 km/h (2 Bft) 0,00 %
28.07.2015 09:05 19,2 C 57 % 1009,9 hPa 0,0 l/m 0,0 km/h (0 Bft) NO 40 0 min 0,000 mm 1,0 UV-I 110 W/m 10,5 C 19,2 C 0,0 km/h (0 Bft) 0,00 %
28.07.2015 09:10 19,2 C 56 % 1010,1 hPa 0,0 l/m 0,0 km/h (0 Bft) NO 52 0 min 0,000 mm 1,0 UV-I 110 W/m 10,2 C 19,2 C 0,0 km/h (0 Bft) 0,00 %
28.07.2015 09:15 19,3 C 56 % 1010,0 hPa 0,0 l/m 0,4 km/h (0 Bft) NW 314 0 min 0,000 mm 1,0 UV-I 111 W/m 10,3 C 19,3 C 4,0 km/h (1 Bft) 0,00 %
28.07.2015 09:20 19,3 C 54 % 1010,0 hPa 0,0 l/m 0,0 km/h (0 Bft) NO 42 0 min 0,000 mm 1,0 UV-I 123 W/m 9,8 C 19,3 C 0,0 km/h (0 Bft) 0,00 %
28.07.2015 09:25 19,5 C 55 % 1010,0 hPa 0,0 l/m 0,0 km/h (0 Bft) NO 34 0 min 0,000 mm 1,0 UV-I 130 W/m 10,2 C 19,5 C 0,0 km/h (0 Bft) 0,00 %
28.07.2015 09:30 19,6 C 54 % 1010,2 hPa 0,0 l/m 0,0 km/h (0 Bft) W-SW 254 0 min 0,000 mm 1,0 UV-I 130 W/m 10,0 C 19,6 C 0,0 km/h (0 Bft) 0,00 %
28.07.2015 09:35 19,6 C 52 % 1010,1 hPa 0,0 l/m 0,0 km/h (0 Bft) N-NW 335 0 min 0,000 mm 1,0 UV-I 130 W/m 9,5 C 19,6 C 0,0 km/h (0 Bft) 0,00 %
28.07.2015 09:40 19,7 C 54 % 1010,0 hPa 0,0 l/m 0,0 km/h (0 Bft) W-SW 256 0 min 0,000 mm 1,0 UV-I 170 W/m 10,1 C 19,7 C 0,0 km/h (0 Bft) 0,00 %
28.07.2015 09:46 19,8 C 53 % 1009,7 hPa 0,0 l/m 1,4 km/h (1 Bft) N 0 0 min 0,000 mm 1,0 UV-I 172 W/m 9,9 C 19,8 C 4,0 km/h (1 Bft) 0,00 %
28.07.2015 09:51 19,9 C 51 % 1010,0 hPa 0,0 l/m 0,0 km/h (0 Bft) NO 43 0 min 0,000 mm 1,0 UV-I 155 W/m 9,5 C 19,9 C 0,0 km/h (0 Bft) 0,00 %
28.07.2015 09:56 19,9 C 51 % 1010,0 hPa 0,0 l/m 5,8 km/h (2 Bft) W-NW 291 0 min 0,000 mm 1,0 UV-I 152 W/m 9,5 C 19,9 C 7,9 km/h (2 Bft) 0,00 %
28.07.2015 10:01 19,9 C 53 % 1009,9 hPa 0,0 l/m 1,4 km/h (1 Bft) W-NW 284 0 min 0,000 mm 1,0 UV-I 163 W/m 10,0 C 19,9 C 4,0 km/h (1 Bft) 0,00 %
28.07.2015 10:06 19,9 C 52 % 1010,2 hPa 0,0 l/m 0,4 km/h (0 Bft) W-NW 294 0 min 0,000 mm 1,0 UV-I 148 W/m 9,7 C 19,9 C 4,0 km/h (1 Bft) 0,00 %
28.07.2015 10:11 19,9 C 53 % 1010,1 hPa 0,0 l/m 2,2 km/h (1 Bft) NW 312 0 min 0,000 mm 1,0 UV-I 140 W/m 10,0 C 19,9 C 4,0 km/h (1 Bft) 0,00 %
28.07.2015 10:16 19,9 C 51 % 1009,9 hPa 0,0 l/m 0,0 km/h (0 Bft) N-NW 342 0 min 0,000 mm 1,0 UV-I 162 W/m 9,5 C 19,9 C 0,0 km/h (0 Bft) 0,00 %
28.07.2015 10:21 19,9 C 52 % 1010,0 hPa 0,0 l/m 0,0 km/h (0 Bft) W-SW 256 0 min 0,000 mm 1,0 UV-I 158 W/m 9,7 C 19,9 C 0,0 km/h (0 Bft) 0,00 %
28.07.2015 10:26 19,9 C 51 % 1009,9 hPa 0,0 l/m 0,0 km/h (0 Bft) N-NW 328 0 min 0,000 mm 1,0 UV-I 146 W/m 9,5 C 19,9 C 0,0 km/h (0 Bft) 0,00 %
28.07.2015 10:31 20,0 C 51 % 1009,9 hPa 0,0 l/m 0,0 km/h (0 Bft) N-NO 16 0 min 0,000 mm 1,0 UV-I 145 W/m 9,6 C 20,0 C 0,0 km/h (0 Bft) 0,00 %
28.07.2015 10:36 20,0 C 52 % 1009,9 hPa 0,0 l/m 1,8 km/h (1 Bft) W-NW 282 0 min 0,000 mm 1,0 UV-I 142 W/m 9,8 C 20,0 C 4,0 km/h (1 Bft) 0,00 %
28.07.2015 10:46 20,2 C 52 % 1010,0 hPa 0,0 l/m 0,0 km/h (0 Bft) NO 44 0 min 0,000 mm 1,0 UV-I 156 W/m 10,0 C 20,2 C 0,0 km/h (0 Bft) 0,00 %
28.07.2015 10:51 20,2 C 51 % 1010,1 hPa 0,0 l/m 0,0 km/h (0 Bft) O-NO 66 0 min 0,000 mm 1,0 UV-I 136 W/m 9,7 C 20,2 C 0,0 km/h (0 Bft) 0,00 %
28.07.2015 10:56 20,2 C 51 % 1010,0 hPa 0,0 l/m 4,0 km/h (1 Bft) N 354 0 min 0,000 mm 1,0 UV-I 144 W/m 9,7 C 20,2 C 7,9 km/h (2 Bft) 0,00 %
28.07.2015 11:01 20,2 C 50 % 1009,9 hPa 0,0 l/m 1,8 km/h (1 Bft) W 259 0 min 0,000 mm 1,0 UV-I 175 W/m 9,4 C 20,2 C 4,0 km/h (1 Bft) 0,00 %
28.07.2015 11:06 20,2 C 49 % 1010,1 hPa 0,0 l/m 0,0 km/h (0 Bft) NO 38 0 min 0,000 mm 1,0 UV-I 188 W/m 9,1 C 20,2 C 0,0 km/h (0 Bft) 0,00 %
28.07.2015 11:11 20,2 C 50 % 1010,1 hPa 0,0 l/m 0,0 km/h (0 Bft) NO 49 0 min 0,000 mm 1,0 UV-I 219 W/m 9,4 C 20,2 C 0,0 km/h (0 Bft) 0,00 %
28.07.2015 11:16 20,4 C 50 % 1009,8 hPa 0,0 l/m 0,4 km/h (0 Bft) NO 51 0 min 0,000 mm 1,0 UV-I 245 W/m 9,6 C 20,4 C 4,0 km/h (1 Bft) 0,00 %
28.07.2015 11:21 20,5 C 49 % 1009,8 hPa 0,0 l/m 0,0 km/h (0 Bft) NW 325 0 min 0,000 mm 1,0 UV-I 281 W/m 9,4 C 20,5 C 0,0 km/h (0 Bft) 0,00 %
28.07.2015 11:26 20,6 C 49 % 1010,1 hPa 0,0 l/m 6,8 km/h (2 Bft) W-SW 255 0 min 0,000 mm 2,0 UV-I 310 W/m 9,5 C 20,4 C 11,9 km/h (2 Bft) 0,00 %
28.07.2015 11:31 20,8 C 48 % 1009,9 hPa 0,0 l/m 0,4 km/h (0 Bft) NO 50 5 min 0,000 mm 2,0 UV-I 488 W/m 9,4 C 20,8 C 4,0 km/h (1 Bft) 0,00 %
28.07.2015 11:36 21,2 C 48 % 1009,5 hPa 0,0 l/m 3,2 km/h (1 Bft) SW 225 5 min 0,000 mm 2,0 UV-I 460 W/m 9,7 C 21,2 C 4,0 km/h (1 Bft) 0,00 %
28.07.2015 11:41 21,8 C 46 % 1010,0 hPa 0,0 l/m 1,4 km/h (1 Bft) NO 44 0 min 0,000 mm 2,0 UV-I 448 W/m 9,7 C 21,8 C 4,0 km/h (1 Bft) 0,00 %
28.07.2015 11:46 22,3 C 44 % 1009,8 hPa 0,0 l/m 6,8 km/h (2 Bft) N-NO 21 0 min 0,000 mm 2,0 UV-I 417 W/m 9,5 C 22,2 C 11,9 km/h (2 Bft) 0,00 %
28.07.2015 11:51 22,4 C 43 % 1010,1 hPa 0,0 l/m 1,8 km/h (1 Bft) NW 320 0 min 0,000 mm 2,0 UV-I 308 W/m 9,2 C 22,4 C 4,0 km/h (1 Bft) 0,00 %
28.07.2015 11:56 22,1 C 44 % 1009,8 hPa 0,0 l/m 4,0 km/h (1 Bft) W-NW 286 0 min 0,000 mm 2,0 UV-I 414 W/m 9,3 C 22,1 C 7,9 km/h (2 Bft) 0,00 %
28.07.2015 12:01 21,9 C 45 % 1009,8 hPa 0,0 l/m 2,9 km/h (1 Bft) N-NW 329 0 min 0,000 mm 2,0 UV-I 337 W/m 9,4 C 21,9 C 4,0 km/h (1 Bft) 0,00 %
28.07.2015 12:06 21,9 C 44 % 1009,8 hPa 0,0 l/m 0,7 km/h (0 Bft) NO 36 0 min 0,000 mm 2,0 UV-I 375 W/m 9,1 C 21,9 C 4,0 km/h (1 Bft) 0,00 %
28.07.2015 12:11 21,9 C 45 % 1009,9 hPa 0,0 l/m 6,8 km/h (2 Bft) W-NW 299 0 min 0,000 mm 2,0 UV-I 309 W/m 9,4 C 21,8 C 7,9 km/h (2 Bft) 0,00 %
28.07.2015 12:16 21,8 C 43 % 1010,1 hPa 0,0 l/m 1,4 km/h (1 Bft) O-NO 58 0 min 0,000 mm 1,0 UV-I 272 W/m 8,7 C 21,8 C 4,0 km/h (1 Bft) 0,00 %
28.07.2015 12:21 21,6 C 45 % 1009,8 hPa 0,0 l/m 3,2 km/h (1 Bft) W 281 0 min 0,000 mm 1,0 UV-I 275 W/m 9,2 C 21,6 C 4,0 km/h (1 Bft) 0,00 %
28.07.2015 12:26 21,5 C 46 % 1009,9 hPa 0,0 l/m 9,4 km/h (2 Bft) O 88 0 min 0,000 mm 2,0 UV-I 312 W/m 9,4 C 20,5 C 15,8 km/h (3 Bft) 0,00 %
28.07.2015 12:31 21,5 C 47 % 1009,8 hPa 0,0 l/m 9,0 km/h (2 Bft) SW 227 0 min 0,000 mm 2,0 UV-I 308 W/m 9,7 C 20,6 C 11,9 km/h (2 Bft) 0,00 %
28.07.2015 12:36 21,4 C 46 % 1009,8 hPa 0,0 l/m 2,9 km/h (1 Bft) W-SW 256 0 min 0,000 mm 1,0 UV-I 260 W/m 9,3 C 21,4 C 7,9 km/h (2 Bft) 0,00 %
28.07.2015 12:41 21,4 C 46 % 1009,8 hPa 0,0 l/m 0,0 km/h (0 Bft) NO 46 0 min 0,000 mm 1,0 UV-I 226 W/m 9,3 C 21,4 C 0,0 km/h (0 Bft) 0,00 %
28.07.2015 12:46 21,5 C 46 % 1009,7 hPa 0,0 l/m 0,0 km/h (0 Bft) N-NW 346 0 min 0,000 mm 1,0 UV-I 263 W/m 9,4 C 21,5 C 0,0 km/h (0 Bft) 0,00 %
28.07.2015 12:51 21,5 C 47 % 1010,0 hPa 0,0 l/m 0,4 km/h (0 Bft) NW 326 0 min 0,000 mm 1,0 UV-I 240 W/m 9,7 C 21,5 C 4,0 km/h (1 Bft) 0,00 %
28.07.2015 12:56 21,4 C 48 % 1009,8 hPa 0,0 l/m 1,8 km/h (1 Bft) O-NO 77 0 min 0,000 mm 1,0 UV-I 256 W/m 9,9 C 21,4 C 4,0 km/h (1 Bft) 0,00 %
28.07.2015 13:01 21,5 C 46 % 1009,9 hPa 0,0 l/m 0,7 km/h (0 Bft) N-NW 342 0 min 0,000 mm 2,0 UV-I 312 W/m 9,4 C 21,5 C 4,0 km/h (1 Bft) 0,00 %
28.07.2015 13:06 21,6 C 47 % 1009,8 hPa 0,0 l/m 0,0 km/h (0 Bft) NO 41 0 min 0,000 mm 2,0 UV-I 304 W/m 9,8 C 21,6 C 0,0 km/h (0 Bft) 0,00 %
28.07.2015 13:11 21,7 C 47 % 1009,7 hPa 0,0 l/m 5,8 km/h (2 Bft) N-NW 342 0 min 0,000 mm 2,0 UV-I 385 W/m 9,9 C 21,7 C 7,9 km/h (2 Bft) 0,00 %
28.07.2015 13:16 21,8 C 46 % 1009,7 hPa 0,0 l/m 0,0 km/h (0 Bft) O 95 0 min 0,000 mm 2,0 UV-I 373 W/m 9,7 C 21,8 C 0,0 km/h (0 Bft) 0,00 %
28.07.2015 13:21 21,9 C 46 % 1009,6 hPa 0,0 l/m 7,2 km/h (2 Bft) W-SW 256 0 min 0,000 mm 2,0 UV-I 370 W/m 9,7 C 21,6 C 11,9 km/h (2 Bft) 0,00 %
28.07.2015 13:26 22,0 C 46 % 1009,7 hPa 0,0 l/m 5,8 km/h (2 Bft) N-NW 332 0 min 0,000 mm 2,0 UV-I 319 W/m 9,8 C 22,0 C 11,9 km/h (2 Bft) 0,00 %
28.07.2015 13:31 21,9 C 48 % 1009,8 hPa 0,0 l/m 0,0 km/h (0 Bft) O-NO 60 0 min 0,000 mm 2,0 UV-I 421 W/m 10,4 C 21,9 C 0,0 km/h (0 Bft) 0,00 %
28.07.2015 13:36 22,0 C 46 % 1009,7 hPa 0,0 l/m 2,9 km/h (1 Bft) O-SO 118 5 min 0,000 mm 2,0 UV-I 502 W/m 9,8 C 22,0 C 4,0 km/h (1 Bft) 0,00 %
28.07.2015 13:41 22,5 C 43 % 1009,4 hPa 0,0 l/m 0,7 km/h (0 Bft) W-SW 241 5 min 0,000 mm 2,0 UV-I 510 W/m 9,3 C 22,5 C 4,0 km/h (1 Bft) 0,00 %
28.07.2015 13:46 22,9 C 44 % 1009,3 hPa 0,0 l/m 0,7 km/h (0 Bft) O-SO 111 5 min 0,000 mm 3,0 UV-I 556 W/m 10,0 C 22,9 C 4,0 km/h (1 Bft) 0,00 %
28.07.2015 13:51 22,9 C 45 % 1009,3 hPa 0,0 l/m 4,3 km/h (1 Bft) W-SW 256 0 min 0,000 mm 2,0 UV-I 403 W/m 10,3 C 22,9 C 7,9 km/h (2 Bft) 0,00 %
28.07.2015 13:56 22,8 C 44 % 1009,4 hPa 0,0 l/m 0,4 km/h (0 Bft) W 276 0 min 0,000 mm 2,0 UV-I 383 W/m 9,9 C 22,8 C 4,0 km/h (1 Bft) 0,00 %
28.07.2015 14:01 22,6 C 45 % 1009,5 hPa 0,0 l/m 4,7 km/h (1 Bft) W-SW 256 0 min 0,000 mm 1,0 UV-I 255 W/m 10,1 C 22,6 C 7,9 km/h (2 Bft) 0,00 %
28.07.2015 14:06 22,4 C 45 % 1009,4 hPa 0,0 l/m 1,4 km/h (1 Bft) O-SO 107 0 min 0,000 mm 2,0 UV-I 335 W/m 9,9 C 22,4 C 4,0 km/h (1 Bft) 0,00 %
28.07.2015 14:11 22,4 C 46 % 1009,3 hPa 0,0 l/m 1,4 km/h (1 Bft) N-NW 337 5 min 0,000 mm 2,0 UV-I 488 W/m 10,2 C 22,4 C 4,0 km/h (1 Bft) 0,00 %
28.07.2015 14:16 22,5 C 46 % 1009,4 hPa 0,0 l/m 0,0 km/h (0 Bft) N-NW 347 5 min 0,000 mm 2,0 UV-I 480 W/m 10,3 C 22,5 C 0,0 km/h (0 Bft) 0,00 %
28.07.2015 14:21 22,8 C 44 % 1009,4 hPa 0,0 l/m 0,0 km/h (0 Bft) N-NO 31 5 min 0,000 mm 2,0 UV-I 488 W/m 9,9 C 22,8 C 0,0 km/h (0 Bft) 0,00 %
28.07.2015 14:26 23,2 C 44 % 1009,4 hPa 0,0 l/m 0,7 km/h (0 Bft) NO 56 5 min 0,000 mm 3,0 UV-I 612 W/m 10,3 C 23,2 C 4,0 km/h (1 Bft) 0,00 %
28.07.2015 14:31 23,5 C 43 % 1009,2 hPa 0,0 l/m 1,8 km/h (1 Bft) SO 140 5 min 0,000 mm 2,0 UV-I 476 W/m 10,2 C 23,5 C 4,0 km/h (1 Bft) 0,00 %
28.07.2015 14:36 23,6 C 43 % 1009,1 hPa 0,0 l/m 2,9 km/h (1 Bft) N-NO 18 5 min 0,000 mm 3,0 UV-I 630 W/m 10,3 C 23,6 C 4,0 km/h (1 Bft) 0,00 %
28.07.2015 14:41 23,7 C 43 % 1008,9 hPa 0,0 l/m 0,0 km/h (0 Bft) W 264 5 min 0,000 mm 5,0 UV-I 1071 W/m 10,4 C 23,7 C 0,0 km/h (0 Bft) 0,00 %
28.07.2015 14:46 24,1 C 42 % 1008,8 hPa 0,0 l/m 0,4 km/h (0 Bft) NO 53 5 min 0,000 mm 4,0 UV-I 813 W/m 10,4 C 24,1 C 4,0 km/h (1 Bft) 0,00 %
28.07.2015 14:51 24,5 C 41 % 1008,9 hPa 0,0 l/m 2,9 km/h (1 Bft) NW 311 5 min 0,000 mm 2,0 UV-I 458 W/m 10,4 C 24,5 C 7,9 km/h (2 Bft) 0,00 %
28.07.2015 14:56 24,4 C 42 % 1008,8 hPa 0,0 l/m 0,4 km/h (0 Bft) NW 317 5 min 0,000 mm 4,0 UV-I 1115 W/m 10,6 C 24,4 C 4,0 km/h (1 Bft) 0,00 %
28.07.2015 15:01 24,5 C 42 % 1008,9 hPa 0,0 l/m 0,0 km/h (0 Bft) N-NO 27 5 min 0,000 mm 2,0 UV-I 466 W/m 10,7 C 24,5 C 0,0 km/h (0 Bft) 0,00 %
28.07.2015 15:06 24,6 C 41 % 1008,9 hPa 0,0 l/m 0,4 km/h (0 Bft) NO 41 5 min 0,000 mm 2,0 UV-I 468 W/m 10,5 C 24,6 C 4,0 km/h (1 Bft) 0,00 %
28.07.2015 15:11 24,3 C 41 % 1009,0 hPa 0,0 l/m 2,9 km/h (1 Bft) O-NO 67 0 min 0,000 mm 2,0 UV-I 398 W/m 10,2 C 24,3 C 7,9 km/h (2 Bft) 0,00 %
28.07.2015 15:16 24,0 C 42 % 1009,0 hPa 0,0 l/m 4,3 km/h (1 Bft) N-NW 341 0 min 0,000 mm 2,0 UV-I 360 W/m 10,3 C 24,0 C 7,9 km/h (2 Bft) 0,00 %
28.07.2015 15:21 23,8 C 42 % 1008,8 hPa 0,0 l/m 0,0 km/h (0 Bft) NO 35 0 min 0,000 mm 1,0 UV-I 271 W/m 10,1 C 23,8 C 0,0 km/h (0 Bft) 0,00 %
28.07.2015 15:26 23,7 C 44 % 1008,8 hPa 0,0 l/m 0,0 km/h (0 Bft) NO 50 0 min 0,000 mm 1,0 UV-I 317 W/m 10,7 C 23,7 C 0,0 km/h (0 Bft) 0,00 %
28.07.2015 15:31 23,5 C 44 % 1008,7 hPa 0,0 l/m 2,2 km/h (1 Bft) N-NW 329 0 min 0,000 mm 2,0 UV-I 314 W/m 10,5 C 23,5 C 4,0 km/h (1 Bft) 0,00 %
28.07.2015 15:36 23,4 C 45 % 1008,7 hPa 0,0 l/m 1,8 km/h (1 Bft) W 266 0 min 0,000 mm 2,0 UV-I 377 W/m 10,8 C 23,4 C 4,0 km/h (1 Bft) 0,00 %
28.07.2015 15:41 23,5 C 43 % 1008,8 hPa 0,0 l/m 6,8 km/h (2 Bft) W-SW 256 0 min 0,000 mm 2,0 UV-I 331 W/m 10,2 C 23,4 C 7,9 km/h (2 Bft) 0,00 %
28.07.2015 15:46 23,6 C 44 % 1008,7 hPa 0,0 l/m 4,7 km/h (1 Bft) W-NW 285 0 min 0,000 mm 1,0 UV-I 182 W/m 10,6 C 23,6 C 7,9 km/h (2 Bft) 0,00 %
28.07.2015 15:51 23,3 C 44 % 1008,8 hPa 0,0 l/m 0,4 km/h (0 Bft) N 351 0 min 0,000 mm 1,0 UV-I 191 W/m 10,4 C 23,3 C 4,0 km/h (1 Bft) 0,00 %
28.07.2015 15:56 23,0 C 45 % 1008,6 hPa 0,0 l/m 0,4 km/h (0 Bft) O-NO 75 0 min 0,000 mm 1,0 UV-I 257 W/m 10,4 C 23,0 C 4,0 km/h (1 Bft) 0,00 %
28.07.2015 16:01 22,8 C 45 % 1008,6 hPa 0,0 l/m 0,0 km/h (0 Bft) N-NO 20 0 min 0,000 mm 1,0 UV-I 299 W/m 10,2 C 22,8 C 0,0 km/h (0 Bft) 0,00 %
28.07.2015 16:06 22,8 C 43 % 1008,5 hPa 0,0 l/m 5,8 km/h (2 Bft) W-NW 283 5 min 0,000 mm 2,0 UV-I 470 W/m 9,6 C 22,8 C 7,9 km/h (2 Bft) 0,00 %
28.07.2015 16:11 23,1 C 44 % 1008,5 hPa 0,0 l/m 0,0 km/h (0 Bft) NO 47 5 min 0,000 mm 2,0 UV-I 482 W/m 10,2 C 23,1 C 0,0 km/h (0 Bft) 0,00 %
28.07.2015 16:16 23,4 C 43 % 1008,4 hPa 0,0 l/m 0,7 km/h (0 Bft) N-NO 32 0 min 0,000 mm 1,0 UV-I 310 W/m 10,1 C 23,4 C 4,0 km/h (1 Bft) 0,00 %
28.07.2015 16:21 23,7 C 42 % 1008,5 hPa 0,0 l/m 0,0 km/h (0 Bft) NO 46 5 min 0,000 mm 2,0 UV-I 390 W/m 10,0 C 23,7 C 0,0 km/h (0 Bft) 0,00 %
28.07.2015 16:26 24,0 C 41 % 1008,2 hPa 0,0 l/m 5,4 km/h (1 Bft) W-SW 256 5 min 0,000 mm 2,0 UV-I 438 W/m 9,9 C 24,0 C 7,9 km/h (2 Bft) 0,00 %
28.07.2015 16:31 24,2 C 41 % 1008,1 hPa 0,0 l/m 1,4 km/h (1 Bft) NO 35 5 min 0,000 mm 2,0 UV-I 387 W/m 10,1 C 24,2 C 4,0 km/h (1 Bft) 0,00 %
28.07.2015 16:36 24,4 C 42 % 1008,2 hPa 0,0 l/m 0,0 km/h (0 Bft) N 355 0 min 0,000 mm 1,0 UV-I 272 W/m 10,6 C 24,4 C 0,0 km/h (0 Bft) 0,00 %
28.07.2015 16:41 24,4 C 40 % 1008,5 hPa 0,0 l/m 0,4 km/h (0 Bft) NW 321 0 min 0,000 mm 1,0 UV-I 218 W/m 9,9 C 24,4 C 4,0 km/h (1 Bft) 0,00 %
28.07.2015 16:46 24,2 C 42 % 1008,3 hPa 0,0 l/m 0,0 km/h (0 Bft) N-NW 327 0 min 0,000 mm 1,0 UV-I 178 W/m 10,5 C 24,2 C 0,0 km/h (0 Bft) 0,00 %
28.07.2015 16:51 23,8 C 43 % 1008,5 hPa 0,0 l/m 0,0 km/h (0 Bft) NO 35 0 min 0,000 mm 1,0 UV-I 163 W/m 10,5 C 23,8 C 0,0 km/h (0 Bft) 0,00 %
28.07.2015 16:56 23,5 C 42 % 1008,4 hPa 0,0 l/m 0,0 km/h (0 Bft) N-NO 32 0 min 0,000 mm 1,0 UV-I 172 W/m 9,8 C 23,5 C 0,0 km/h (0 Bft) 0,00 %
28.07.2015 17:01 23,3 C 43 % 1008,2 hPa 0,0 l/m 0,0 km/h (0 Bft) N-NO 32 0 min 0,000 mm 1,0 UV-I 180 W/m 10,0 C 23,3 C 0,0 km/h (0 Bft) 0,00 %
28.07.2015 17:06 23,1 C 45 % 1008,3 hPa 0,0 l/m 0,0 km/h (0 Bft) NO 36 0 min 0,000 mm 1,0 UV-I 150 W/m 10,5 C 23,1 C 0,0 km/h (0 Bft) 0,00 %
28.07.2015 17:11 22,9 C 45 % 1008,1 hPa 0,0 l/m 0,0 km/h (0 Bft) N 355 0 min 0,000 mm 1,0 UV-I 144 W/m 10,3 C 22,9 C 0,0 km/h (0 Bft) 0,00 %
28.07.2015 17:16 22,8 C 44 % 1008,2 hPa 0,0 l/m 0,4 km/h (0 Bft) N-NO 21 0 min 0,000 mm 1,0 UV-I 157 W/m 9,9 C 22,8 C 4,0 km/h (1 Bft) 0,00 %
28.07.2015 17:21 22,8 C 45 % 1008,1 hPa 0,0 l/m 0,0 km/h (0 Bft) N-NO 31 0 min 0,000 mm 1,0 UV-I 240 W/m 10,2 C 22,8 C 0,0 km/h (0 Bft) 0,00 %
28.07.2015 17:26 22,9 C 43 % 1008,0 hPa 0,0 l/m 0,0 km/h (0 Bft) NO 46 0 min 0,000 mm 1,0 UV-I 215 W/m 9,6 C 22,9 C 0,0 km/h (0 Bft) 0,00 %
28.07.2015 17:31 23,1 C 43 % 1008,1 hPa 0,0 l/m 4,7 km/h (1 Bft) W-SW 255 0 min 0,000 mm 1,0 UV-I 248 W/m 9,8 C 23,1 C 7,9 km/h (2 Bft) 0,00 %
28.07.2015 17:36 23,2 C 43 % 1008,4 hPa 0,0 l/m 0,0 km/h (0 Bft) N 352 0 min 0,000 mm 1,0 UV-I 237 W/m 9,9 C 23,2 C 0,0 km/h (0 Bft) 0,00 %
28.07.2015 17:41 23,2 C 45 % 1008,5 hPa 0,0 l/m 0,0 km/h (0 Bft) N-NO 17 0 min 0,000 mm 1,0 UV-I 262 W/m 10,6 C 23,2 C 0,0 km/h (0 Bft) 0,00 %
28.07.2015 17:46 23,3 C 44 % 1008,4 hPa 0,0 l/m 5,4 km/h (1 Bft) W 272 0 min 0,000 mm 1,0 UV-I 230 W/m 10,4 C 23,3 C 7,9 km/h (2 Bft) 0,00 %
28.07.2015 17:51 23,3 C 44 % 1008,5 hPa 0,0 l/m 1,8 km/h (1 Bft) W-SW 255 0 min 0,000 mm 1,0 UV-I 202 W/m 10,4 C 23,3 C 4,0 km/h (1 Bft) 0,00 %
28.07.2015 17:56 23,2 C 43 % 1008,4 hPa 0,0 l/m 1,8 km/h (1 Bft) W-NW 289 0 min 0,000 mm 1,0 UV-I 189 W/m 9,9 C 23,2 C 4,0 km/h (1 Bft) 0,00 %
28.07.2015 18:01 23,1 C 44 % 1008,3 hPa 0,0 l/m 0,0 km/h (0 Bft) N 353 0 min 0,000 mm 1,0 UV-I 159 W/m 10,2 C 23,1 C 0,0 km/h (0 Bft) 0,00 %
28.07.2015 18:06 23,0 C 45 % 1008,1 hPa 0,0 l/m 0,0 km/h (0 Bft) O 98 0 min 0,000 mm 1,0 UV-I 215 W/m 10,4 C 23,0 C 0,0 km/h (0 Bft) 0,00 %
28.07.2015 18:11 22,9 C 45 % 1008,3 hPa 0,0 l/m 0,0 km/h (0 Bft) N 349 0 min 0,000 mm 1,0 UV-I 206 W/m 10,3 C 22,9 C 0,0 km/h (0 Bft) 0,00 %
28.07.2015 18:16 22,8 C 46 % 1008,5 hPa 0,0 l/m 0,0 km/h (0 Bft) N 4 0 min 0,000 mm 1,0 UV-I 211 W/m 10,6 C 22,8 C 0,0 km/h (0 Bft) 0,00 %
28.07.2015 18:21 22,6 C 45 % 1008,2 hPa 0,0 l/m 0,0 km/h (0 Bft) N-NO 15 0 min 0,000 mm 1,0 UV-I 199 W/m 10,1 C 22,6 C 0,0 km/h (0 Bft) 0,00 %
28.07.2015 18:26 22,5 C 46 % 1008,2 hPa 0,0 l/m 1,4 km/h (1 Bft) W-SW 257 5 min 0,000 mm 1,0 UV-I 204 W/m 10,3 C 22,5 C 4,0 km/h (1 Bft) 0,00 %
28.07.2015 18:31 22,5 C 46 % 1008,0 hPa 0,0 l/m 0,0 km/h (0 Bft) O-NO 58 5 min 0,000 mm 1,0 UV-I 233 W/m 10,3 C 22,5 C 0,0 km/h (0 Bft) 0,00 %
28.07.2015 18:36 22,5 C 47 % 1008,1 hPa 0,0 l/m 0,0 km/h (0 Bft) N 2 5 min 0,000 mm 1,0 UV-I 272 W/m 10,6 C 22,5 C 0,0 km/h (0 Bft) 0,00 %
28.07.2015 18:41 22,6 C 46 % 1008,1 hPa 0,0 l/m 0,0 km/h (0 Bft) NO 42 0 min 0,000 mm 1,0 UV-I 166 W/m 10,4 C 22,6 C 0,0 km/h (0 Bft) 0,00 %
28.07.2015 18:46 22,5 C 46 % 1008,2 hPa 0,0 l/m 0,0 km/h (0 Bft) N 353 0 min 0,000 mm 1,0 UV-I 119 W/m 10,3 C 22,5 C 0,0 km/h (0 Bft) 0,00 %
28.07.2015 18:51 22,3 C 47 % 1008,2 hPa 0,0 l/m 0,7 km/h (0 Bft) NO 36 0 min 0,000 mm 1,0 UV-I 122 W/m 10,4 C 22,3 C 4,0 km/h (1 Bft) 0,00 %
28.07.2015 18:56 22,0 C 47 % 1008,2 hPa 0,0 l/m 0,0 km/h (0 Bft) N-NW 348 0 min 0,000 mm 1,0 UV-I 131 W/m 10,2 C 22,0 C 0,0 km/h (0 Bft) 0,00 %
28.07.2015 19:01 21,9 C 49 % 1008,2 hPa 0,0 l/m 1,4 km/h (1 Bft) W 273 0 min 0,000 mm 1,0 UV-I 110 W/m 10,7 C 21,9 C 4,0 km/h (1 Bft) 0,00 %
28.07.2015 19:06 21,8 C 49 % 1008,4 hPa 0,0 l/m 0,0 km/h (0 Bft) NO 40 0 min 0,000 mm 1,0 UV-I 98 W/m 10,6 C 21,8 C 0,0 km/h (0 Bft) 0,00 %
28.07.2015 19:11 21,8 C 49 % 1008,4 hPa 0,0 l/m 0,7 km/h (0 Bft) W-NW 303 0 min 0,000 mm 0,0 UV-I 86 W/m 10,6 C 21,8 C 4,0 km/h (1 Bft) 0,00 %
28.07.2015 19:16 21,5 C 49 % 1008,6 hPa 0,0 l/m 0,0 km/h (0 Bft) N-NO 20 0 min 0,000 mm 0,0 UV-I 88 W/m 10,3 C 21,5 C 0,0 km/h (0 Bft) 0,00 %
28.07.2015 19:21 21,5 C 49 % 1008,6 hPa 0,0 l/m 0,0 km/h (0 Bft) NO 34 0 min 0,000 mm 0,0 UV-I 66 W/m 10,3 C 21,5 C 0,0 km/h (0 Bft) 0,00 %
28.07.2015 19:26 21,4 C 49 % 1008,4 hPa 0,0 l/m 0,4 km/h (0 Bft) N 10 0 min 0,000 mm 0,0 UV-I 57 W/m 10,2 C 21,4 C 4,0 km/h (1 Bft) 0,00 %
28.07.2015 19:31 21,3 C 49 % 1008,4 hPa 0,0 l/m 2,9 km/h (1 Bft) NW 312 0 min 0,000 mm 0,0 UV-I 41 W/m 10,1 C 21,3 C 4,0 km/h (1 Bft) 0,00 %
28.07.2015 19:36 21,1 C 50 % 1008,4 hPa 0,0 l/m 0,0 km/h (0 Bft) NO 39 0 min 0,000 mm 0,0 UV-I 44 W/m 10,3 C 21,1 C 0,0 km/h (0 Bft) 0,00 %
28.07.2015 19:41 21,0 C 51 % 1008,4 hPa 0,0 l/m 0,0 km/h (0 Bft) N-NW 348 0 min 0,000 mm 0,0 UV-I 63 W/m 10,5 C 21,0 C 0,0 km/h (0 Bft) 0,00 %
28.07.2015 19:46 21,0 C 52 % 1008,5 hPa 0,0 l/m 0,7 km/h (0 Bft) N 354 5 min 0,000 mm 0,0 UV-I 81 W/m 10,8 C 21,0 C 4,0 km/h (1 Bft) 0,00 %
28.07.2015 19:51 21,0 C 51 % 1008,6 hPa 0,0 l/m 0,0 km/h (0 Bft) NW 308 0 min 0,000 mm 0,0 UV-I 68 W/m 10,5 C 21,0 C 0,0 km/h (0 Bft) 0,00 %
28.07.2015 19:56 20,9 C 52 % 1008,8 hPa 0,0 l/m 0,0 km/h (0 Bft) NO 41 0 min 0,000 mm 0,0 UV-I 50 W/m 10,7 C 20,9 C 0,0 km/h (0 Bft) 0,00 %
28.07.2015 20:01 20,9 C 53 % 1008,8 hPa 0,0 l/m 0,0 km/h (0 Bft) N-NW 334 0 min 0,000 mm 0,0 UV-I 39 W/m 11,0 C 20,9 C 0,0 km/h (0 Bft) 0,00 %
28.07.2015 20:06 20,8 C 53 % 1008,8 hPa 0,0 l/m 0,0 km/h (0 Bft) W-NW 292 0 min 0,000 mm 0,0 UV-I 36 W/m 10,9 C 20,8 C 0,0 km/h (0 Bft) 0,00 %
28.07.2015 20:11 20,7 C 54 % 1008,8 hPa 0,0 l/m 0,0 km/h (0 Bft) N-NO 33 0 min 0,000 mm 0,0 UV-I 20 W/m 11,1 C 20,7 C 0,0 km/h (0 Bft) 0,00 %
28.07.2015 20:16 20,6 C 53 % 1008,6 hPa 0,0 l/m 0,7 km/h (0 Bft) W-NW 297 0 min 0,000 mm 0,0 UV-I 17 W/m 10,7 C 20,6 C 4,0 km/h (1 Bft) 0,00 %
28.07.2015 20:21 20,5 C 57 % 1008,8 hPa 0,0 l/m 0,0 km/h (0 Bft) NO 44 0 min 0,000 mm 0,0 UV-I 7 W/m 11,7 C 20,5 C 0,0 km/h (0 Bft) 0,00 %
28.07.2015 20:27 20,3 C 56 % 1008,7 hPa 0,0 l/m 0,0 km/h (0 Bft) N-NO 31 0 min 0,000 mm 0,0 UV-I 5 W/m 11,2 C 20,3 C 0,0 km/h (0 Bft) 0,00 %
28.07.2015 20:32 20,1 C 57 % 1008,8 hPa 0,0 l/m 0,0 km/h (0 Bft) N-NO 32 0 min 0,000 mm 0,0 UV-I 1 W/m 11,3 C 20,1 C 0,0 km/h (0 Bft) 0,00 %
28.07.2015 20:37 19,9 C 57 % 1008,7 hPa 0,0 l/m 0,0 km/h (0 Bft) N 353 0 min 0,000 mm 0,0 UV-I 0 W/m 11,1 C 19,9 C 0,0 km/h (0 Bft) 0,00 %
28.07.2015 20:42 19,8 C 57 % 1008,8 hPa 0,0 l/m 0,0 km/h (0 Bft) NO 34 0 min 0,000 mm 0,0 UV-I 0 W/m 11,0 C 19,8 C 0,0 km/h (0 Bft) 0,00 %
28.07.2015 20:47 19,7 C 58 % 1008,7 hPa 0,0 l/m 0,0 km/h (0 Bft) NO 48 0 min 0,000 mm 0,0 UV-I 0 W/m 11,2 C 19,7 C 0,0 km/h (0 Bft) 0,00 %
28.07.2015 20:52 19,5 C 59 % 1008,8 hPa 0,0 l/m 0,0 km/h (0 Bft) O-NO 68 0 min 0,000 mm 0,0 UV-I 0 W/m 11,3 C 19,5 C 0,0 km/h (0 Bft) 0,00 %
28.07.2015 20:57 19,4 C 60 % 1008,8 hPa 0,0 l/m 0,0 km/h (0 Bft) N-NO 32 0 min 0,000 mm 0,0 UV-I 0 W/m 11,4 C 19,4 C 0,0 km/h (0 Bft) 0,00 %
28.07.2015 21:02 19,2 C 60 % 1008,9 hPa 0,0 l/m 0,0 km/h (0 Bft) NO 43 0 min 0,000 mm 0,0 UV-I 0 W/m 11,2 C 19,2 C 0,0 km/h (0 Bft) 0,00 %
28.07.2015 21:07 19,0 C 61 % 1008,9 hPa 0,0 l/m 0,0 km/h (0 Bft) NO 48 0 min 0,000 mm 0,0 UV-I 0 W/m 11,3 C 19,0 C 0,0 km/h (0 Bft) 0,00 %
28.07.2015 21:12 18,8 C 61 % 1009,1 hPa 0,0 l/m 0,0 km/h (0 Bft) NO 36 0 min 0,000 mm 0,0 UV-I 0 W/m 11,1 C 18,8 C 0,0 km/h (0 Bft) 0,00 %
28.07.2015 21:17 18,6 C 62 % 1008,9 hPa 0,0 l/m 0,0 km/h (0 Bft) NO 38 0 min 0,000 mm 0,0 UV-I 0 W/m 11,2 C 18,6 C 0,0 km/h (0 Bft) 0,00 %
28.07.2015 21:22 18,5 C 62 % 1009,2 hPa 0,0 l/m 0,0 km/h (0 Bft) NO 38 0 min 0,000 mm 0,0 UV-I 0 W/m 11,1 C 18,5 C 0,0 km/h (0 Bft) 0,00 %
28.07.2015 21:27 18,5 C 62 % 1009,2 hPa 0,0 l/m 0,0 km/h (0 Bft) NO 41 0 min 0,000 mm 0,0 UV-I 0 W/m 11,1 C 18,5 C 0,0 km/h (0 Bft) 0,00 %
28.07.2015 21:32 18,6 C 63 % 1009,3 hPa 0,0 l/m 0,0 km/h (0 Bft) NO 43 0 min 0,000 mm 0,0 UV-I 0 W/m 11,4 C 18,6 C 0,0 km/h (0 Bft) 0,00 %
28.07.2015 21:37 18,7 C 63 % 1009,1 hPa 0,0 l/m 0,0 km/h (0 Bft) NO 44 0 min 0,000 mm 0,0 UV-I 0 W/m 11,5 C 18,7 C 0,0 km/h (0 Bft) 0,00 %
28.07.2015 21:42 18,7 C 63 % 1009,4 hPa 0,0 l/m 0,0 km/h (0 Bft) NO 37 0 min 0,000 mm 0,0 UV-I 0 W/m 11,5 C 18,7 C 0,0 km/h (0 Bft) 0,00 %
28.07.2015 21:47 18,7 C 63 % 1009,3 hPa 0,0 l/m 0,0 km/h (0 Bft) N 356 0 min 0,000 mm 0,0 UV-I 0 W/m 11,5 C 18,7 C 0,0 km/h (0 Bft) 0,00 %
28.07.2015 21:52 18,7 C 63 % 1009,4 hPa 0,0 l/m 0,0 km/h (0 Bft) N-NO 27 0 min 0,000 mm 0,0 UV-I 0 W/m 11,5 C 18,7 C 0,0 km/h (0 Bft) 0,00 %
28.07.2015 21:57 18,7 C 62 % 1009,4 hPa 0,0 l/m 0,0 km/h (0 Bft) O 95 0 min 0,000 mm 0,0 UV-I 0 W/m 11,3 C 18,7 C 0,0 km/h (0 Bft) 0,00 %
28.07.2015 22:02 18,7 C 62 % 1009,5 hPa 0,0 l/m 0,0 km/h (0 Bft) W 280 0 min 0,000 mm 0,0 UV-I 0 W/m 11,3 C 18,7 C 0,0 km/h (0 Bft) 0,00 %
28.07.2015 22:07 18,7 C 63 % 1009,7 hPa 0,0 l/m 0,0 km/h (0 Bft) N-NW 344 0 min 0,000 mm 0,0 UV-I 0 W/m 11,5 C 18,7 C 0,0 km/h (0 Bft) 0,00 %
28.07.2015 22:12 18,7 C 63 % 1009,5 hPa 0,0 l/m 0,0 km/h (0 Bft) NO 53 0 min 0,000 mm 0,0 UV-I 0 W/m 11,5 C 18,7 C 0,0 km/h (0 Bft) 0,00 %
28.07.2015 22:17 18,6 C 63 % 1009,8 hPa 0,0 l/m 0,4 km/h (0 Bft) NO 42 0 min 0,000 mm 0,0 UV-I 0 W/m 11,4 C 18,6 C 4,0 km/h (1 Bft) 0,00 %
28.07.2015 22:22 18,6 C 63 % 1010,0 hPa 0,0 l/m 0,0 km/h (0 Bft) NW 315 0 min 0,000 mm 0,0 UV-I 0 W/m 11,4 C 18,6 C 0,0 km/h (0 Bft) 0,00 %
28.07.2015 22:27 18,6 C 64 % 1009,8 hPa 0,0 l/m 0,0 km/h (0 Bft) NW 323 0 min 0,000 mm 0,0 UV-I 0 W/m 11,7 C 18,6 C 0,0 km/h (0 Bft) 0,00 %
28.07.2015 22:32 18,5 C 64 % 1009,8 hPa 0,0 l/m 0,0 km/h (0 Bft) W-SW 256 0 min 0,000 mm 0,0 UV-I 0 W/m 11,6 C 18,5 C 0,0 km/h (0 Bft) 0,00 %
28.07.2015 22:37 18,5 C 64 % 1010,1 hPa 0,0 l/m 0,0 km/h (0 Bft) N 353 0 min 0,000 mm 0,0 UV-I 0 W/m 11,6 C 18,5 C 0,0 km/h (0 Bft) 0,00 %
28.07.2015 22:42 18,5 C 64 % 1010,2 hPa 0,0 l/m 1,8 km/h (1 Bft) N-NW 328 0 min 0,000 mm 0,0 UV-I 0 W/m 11,6 C 18,5 C 4,0 km/h (1 Bft) 0,00 %
28.07.2015 22:47 18,5 C 64 % 1010,1 hPa 0,0 l/m 0,0 km/h (0 Bft) N 355 0 min 0,000 mm 0,0 UV-I 0 W/m 11,6 C 18,5 C 0,0 km/h (0 Bft) 0,00 %
28.07.2015 22:52 18,5 C 64 % 1010,3 hPa 0,0 l/m 0,0 km/h (0 Bft) N 352 0 min 0,000 mm 0,0 UV-I 0 W/m 11,6 C 18,5 C 0,0 km/h (0 Bft) 0,00 %
28.07.2015 22:57 18,4 C 65 % 1010,3 hPa 0,0 l/m 0,0 km/h (0 Bft) N-NW 333 0 min 0,000 mm 0,0 UV-I 0 W/m 11,7 C 18,4 C 0,0 km/h (0 Bft) 0,00 %
28.07.2015 23:02 18,3 C 65 % 1010,2 hPa 0,0 l/m 0,0 km/h (0 Bft) O-NO 69 0 min 0,000 mm 0,0 UV-I 0 W/m 11,6 C 18,3 C 0,0 km/h (0 Bft) 0,00 %
28.07.2015 23:07 18,2 C 66 % 1010,0 hPa 0,0 l/m 0,4 km/h (0 Bft) N 351 0 min 0,000 mm 0,0 UV-I 0 W/m 11,7 C 18,2 C 4,0 km/h (1 Bft) 0,00 %
28.07.2015 23:12 18,0 C 67 % 1010,3 hPa 0,0 l/m 0,0 km/h (0 Bft) NO 36 0 min 0,000 mm 0,0 UV-I 0 W/m 11,8 C 18,0 C 0,0 km/h (0 Bft) 0,00 %
28.07.2015 23:17 17,8 C 68 % 1010,4 hPa 0,0 l/m 0,4 km/h (0 Bft) N-NO 29 0 min 0,000 mm 0,0 UV-I 0 W/m 11,8 C 17,8 C 4,0 km/h (1 Bft) 0,00 %
28.07.2015 23:22 17,7 C 68 % 1010,2 hPa 0,0 l/m 1,4 km/h (1 Bft) W-NW 301 0 min 0,000 mm 0,0 UV-I 0 W/m 11,7 C 17,7 C 4,0 km/h (1 Bft) 0,00 %
28.07.2015 23:27 17,7 C 68 % 1010,2 hPa 0,0 l/m 0,7 km/h (0 Bft) N-NW 333 0 min 0,000 mm 0,0 UV-I 0 W/m 11,7 C 17,7 C 4,0 km/h (1 Bft) 0,00 %
28.07.2015 23:32 17,7 C 68 % 1010,2 hPa 0,0 l/m 0,0 km/h (0 Bft) SW 216 0 min 0,000 mm 0,0 UV-I 0 W/m 11,7 C 17,7 C 0,0 km/h (0 Bft) 0,00 %
28.07.2015 23:37 17,7 C 68 % 1010,1 hPa 0,0 l/m 2,2 km/h (1 Bft) W 281 0 min 0,000 mm 0,0 UV-I 0 W/m 11,7 C 17,7 C 4,0 km/h (1 Bft) 0,00 %
28.07.2015 23:42 17,7 C 68 % 1010,1 hPa 0,0 l/m 0,0 km/h (0 Bft) NO 48 0 min 0,000 mm 0,0 UV-I 0 W/m 11,7 C 17,7 C 0,0 km/h (0 Bft) 0,00 %
28.07.2015 23:47 17,7 C 68 % 1010,0 hPa 0,0 l/m 1,4 km/h (1 Bft) N-NW 348 0 min 0,000 mm 0,0 UV-I 0 W/m 11,7 C 17,7 C 4,0 km/h (1 Bft) 0,00 %
28.07.2015 23:52 17,8 C 68 % 1010,2 hPa 0,0 l/m 0,7 km/h (0 Bft) NW 310 0 min 0,000 mm 0,0 UV-I 0 W/m 11,8 C 17,8 C 4,0 km/h (1 Bft) 0,00 %
28.07.2015 23:57 17,8 C 68 % 1010,1 hPa 0,0 l/m 0,0 km/h (0 Bft) NO 47 0 min 0,000 mm 0,0 UV-I 0 W/m 11,8 C 17,8 C 0,0 km/h (0 Bft) 0,00 %
_ Min-Zeit 05:30 16:41 17:26 - 00:04 - - - - - - 01:34 05:30 00:04 00:04
Minimum _ 14,6 C 40 % 1008,0 hPa - 0,0 km/h (0 Bft) - - - - - - 8,5 C 14,6 C 0,0 km/h (0 Bft) 0,00 %
_ Max-Zeit 15:06 05:40 23:17 00:04 12:26 - - 11:31 00:04 14:41 14:56 08:00 15:06 12:26 00:04
Maximum _ 24,6 C 81 % 1010,4 hPa 0,0 l/m 9,4 km/h
O (2 Bft)
- - 5 min 0,000 mm 5,0 UV-I 1115 W/m 12,2 C 24,6 C 15,8 km/h
O (3 Bft)
0,00 %
Durchschnitt _ 19,5 C 57 % 1009,3 hPa #0,0 l/m 0,7 km/h (0 Bft) W-SW - #2:10 h #0,000 mm 1,4 UV-I 217 W/m 10,4 C 19,4 C 1,6 km/h (1 Bft) 0,00 %